#timestamp,LO_Frequency,Hit,StdDev 
1550322015.4,286047000.2,N
1550322035.2,286046998.6,N
1550322055.0,286047000.5,N
1550322055.9,286047000.5,N
1550322075.8,286047000.9,N
1550322095.6,286047000.6,N
1550322115.5,286046999.7,N
1550322135.3,286046998.6,N
1550322155.1,286046998.6,N
1550322175.9,286046998.9,N
1550322195.7,286046998.5,N
1550322215.5,286046999.7,N
1550322235.4,286047002.8,N
1550322255.2,286046999.7,N
1550322275.1,286047000.1,N
1550322276.0,286047000.1,N
1550322295.8,286047000.3,N
1550322315.6,286047002.7,N
1550322335.5,286046998.5,N
1550322355.3,286047000.8,N
1550322375.1,286047001.9,N
1550322395.9,286047002.1,N
1550322415.7,286047002.4,N
1550322435.6,286047002.0,N
1550322455.4,286047002.3,N
1550322475.2,286047000.9,N
1550322495.1,286047002.8,N
1550322496.0,286047002.8,N
1550322515.8,286047004.4,N
1550322535.7,286047001.5,N
1550322555.9,286047001.3,N
1550322575.7,286047002.1,N
1550322595.6,286047003.5,N
1550322615.4,286047004.0,N
1550322635.2,286047002.9,N
1550322655.1,286047003.2,N
1550322656.0,286047003.2,N
1550322675.8,286047003.9,N
1550322695.7,286047004.3,N
1550322715.5,286047001.3,N
1550322735.3,286047003.9,N
1550322755.2,286047004.4,N
1550322775.0,286047002.1,N
1550322775.9,286047002.1,N
1550322795.8,286046999.8,N
1550322815.6,286047001.7,N
1550322835.4,286047002.7,N
1550322855.3,286047001.4,N
1550322875.1,286047001.7,N
1550322895.8,286047004.3,Y
1550322915.7,286047000.4,P
1550322935.5,286047002.3,N
1550322955.4,286047000.6,N
1550322975.2,286047000.2,N
1550322995.0,286047002.3,N
1550322995.9,286047002.3,N
1550323015.8,286047002.2,N
1550323035.6,286047001.5,N
1550323055.5,286047001.4,N
1550323075.3,286047002.4,N
1550323095.1,286047002.0,N
1550323115.9,286047000.7,N
1550323135.7,286047000.5,N
1550323155.6,286047000.8,N
1550323175.4,286046998.4,N
1550323195.2,286046998.5,N
1550323215.1,286046998.8,N
1550323216.0,286046998.8,N
1550323235.8,286046998.4,N
1550323255.6,286046998.5,N
1550323275.5,286047000.5,N
1550323295.3,286047000.0,N
1550323315.2,286047000.3,N
1550323335.9,286046999.9,N
1550323355.7,286047002.4,N
1550323375.6,286047001.8,N
1550323395.4,286047002.8,N
1550323415.2,286047002.0,N
1550323435.1,286047002.4,N
1550323436.0,286047002.4,N
1550323455.8,286047002.5,N
1550323475.7,286047001.8,N
1550323495.5,286047002.3,N
1550323515.3,286047000.5,N
1550323535.2,286047000.5,N
1550323555.3,286047002.8,N
1550323575.1,286047002.0,N
1550323595.9,286047000.4,N
1550323615.7,286046999.7,N
1550323635.5,286047002.7,N
1550323655.4,286047004.3,N
1550323675.2,286047006.0,Y
1550323695.1,286047002.2,P
1550323696.0,286047002.2,P
1550323715.8,286047003.3,P
1550323735.7,286047004.1,Y
1550323755.5,286047002.3,P
1550323775.3,286047002.0,P
1550323795.2,286047002.4,P
1550323815.0,286047001.3,Y
1550323815.9,286047001.3,P
1550323835.7,286047000.8,N
1550323855.6,286046999.0,N
1550323875.4,286046998.1,N
1550323895.3,286046999.5,N
1550323915.1,286046997.5,N
1550323916.0,286046997.5,N
1550323935.8,286046999.5,N
1550323955.7,286046999.4,N
1550323975.5,286046997.0,N
1550323995.3,286046998.9,N
1550324015.2,286046999.0,N
1550324035.0,286046998.6,N
1550324035.9,286046998.6,N
1550324055.8,286047000.5,N
1550324075.6,286046998.2,N
1550324095.4,286046998.2,N
1550324115.3,286046998.9,N
1550324135.1,286047000.7,N
1550324155.8,286046999.9,N
1550324175.7,286047002.6,N
1550324195.5,286047000.3,N
1550324215.4,286047000.3,N
1550324235.2,286047000.6,N
1550324255.0,286046998.4,N
1550324255.9,286046998.4,N
1550324275.8,286046998.1,N
1550324295.6,286046998.5,N
1550324315.4,286046998.1,N
1550324335.3,286046998.2,N
1550324355.1,286047000.1,N
1550324375.9,286047001.1,N
1550324395.7,286047000.4,N
1550324415.5,286046998.5,N
1550324435.4,286046998.1,N
1550324455.2,286047000.0,N
1550324475.0,286047000.7,N
1550324475.9,286047000.7,N
1550324495.8,286046999.0,N
1550324515.6,286046999.3,N
1550324535.5,286046999.2,N
1550324555.3,286046998.5,N
1550324575.1,286046999.4,N
1550324595.9,286047001.2,N
1550324615.7,286047000.7,N
1550324635.5,286047000.4,N
1550324655.4,286047001.2,N
1550324675.2,286046998.5,N
1550324695.1,286046998.8,N
1550324696.0,286046998.8,N
1550324715.8,286047000.8,N
1550324735.6,286047000.7,N
1550324755.5,286047000.6,N
1550324775.3,286047001.0,N
1550324795.2,286046999.8,N
1550324815.9,286047002.4,N
1550324835.7,286047002.5,N
1550324855.6,286047002.2,N
1550324875.4,286047001.8,N
1550324895.2,286046999.9,N
1550324915.1,286046999.7,N
1550324916.0,286046999.7,N
1550324935.8,286046999.8,N
1550324955.7,286047000.6,N
1550324975.5,286047000.3,N
1550324995.3,286047000.5,N
1550325015.2,286047002.4,N
1550325035.0,286047003.9,Y
1550325035.9,286047003.9,P
1550325055.8,286047001.7,N
1550325075.6,286047001.9,N
1550325095.4,286046999.9,N
1550325115.3,286047000.1,N
1550325135.1,286047000.1,N
1550325155.8,286047002.1,N
1550325175.7,286047001.2,N
1550325195.5,286047002.7,N
1550325215.4,286047000.4,N
1550325235.2,286047000.3,N
1550325255.0,286047000.7,N
1550325255.9,286047000.7,N
1550325275.8,286047000.7,N
1550325295.6,286047000.9,N
1550325315.5,286047002.4,N
1550325335.3,286047000.4,N
1550325355.1,286047001.1,N
1550325375.9,286046998.1,N
1550325395.7,286047000.5,N
1550325415.6,286046999.8,N
1550325435.4,286047001.0,N
1550325455.2,286047002.2,N
1550325475.1,286047002.6,N
1550325476.0,286047002.6,N
1550325495.8,286047001.9,N
1550325515.6,286047002.3,N
1550325535.5,286047002.6,N
1550325555.3,286047002.4,N
1550325575.1,286047000.4,N
1550325595.9,286047002.1,N
